Lapse_Rate
6.2 6.3 6.1 6.0 5.9 5.7 5.6 5.5 5.6 6.0 6.0 5.9 5.7 5.5 5.7 5.9 5.8 5.9 5.8 5.8 6.0 6.0 6.1 5.9 5.8 5.9 6.1 6.0 5.9 5.7 5.8 5.7 5.8 5.9 5.6 5.4 5.4 5.4 5.5 5.3 5.3 5.3 5.2
6.2 5.7 5.8 6.3 6.0 5.7 5.8 5.7 5.7 6.0 6.2 6.3 5.9 5.8 5.9 5.7 5.8 5.8 5.9 5.9 6.0 5.9 6.0 6.0 5.8 5.7 5.8 5.8 5.9 5.9 6.0 5.7 5.6 5.5 5.6 5.5 5.6 5.5 5.4 5.5 5.3 5.3 5.3
5.9 6.1 6.1 5.7 6.0 5.9 5.7 5.8 5.6 5.7 5.9 6.2 6.0 5.7 5.6 5.8 5.8 5.7 5.8 6.0 6.1 6.1 5.9 5.9 5.9 5.8 5.6 5.8 6.0 5.9 5.8 5.8 5.8 5.7 5.6 5.6 5.5 5.7 5.6 5.6 5.5 5.5 5.3
5.3 5.6 5.9 5.7 6.0 6.1 5.9 6.1 6.2 6.2 6.1 6.1 6.0 5.8 6.0 6.0 6.0 6.0 6.1 5.9 6.0 6.0 6.1 5.9 5.9 6.0 5.9 5.8 5.9 6.0 5.8 5.6 5.8 5.7 5.8 5.8 5.7 5.4 5.5 5.5 5.6 5.6 5.3
6.0 5.7 5.4 6.0 6.0 6.0 6.2 6.0 6.4 6.4 6.4 6.1 6.3 6.5 6.3 6.1 6.0 6.3 6.3 6.1 6.0 6.0 5.9 5.8 5.9 5.8 5.7 5.7 5.7 5.9 5.9 5.6 5.5 5.5 5.5 5.5 5.6 5.5 5.4 5.3 5.4 5.4 5.2
5.9 5.6 5.6 5.9 5.7 5.8 6.3 6.6 6.1 6.4 6.4 6.5 6.3 6.4 6.3 6.3 6.2 6.3 6.1 6.1 5.9 5.9 5.9 5.8 5.8 5.7 5.7 5.7 5.7 5.8 5.9 5.7 5.7 5.6 5.4 5.5 5.6 5.6 5.8 5.4 5.4 5.2 5.3
5.8 6.0 5.6 5.8 5.8 6.4 6.3 6.3 6.4 6.2 6.2 6.3 6.3 6.3 6.5 6.5 6.4 6.3 6.2 6.1 6.1 6.0 5.9 5.9 5.9 5.9 5.6 5.5 5.5 5.7 5.7 5.7 5.7 5.7 5.7 5.6 5.7 5.8 5.9 5.6 5.3 5.3 5.2
6.0 5.9 5.9 5.6 5.6 6.0 6.4 6.6 6.2 6.2 6.0 6.0 6.2 6.1 6.1 6.2 6.1 6.2 6.3 6.2 6.1 6.0 6.1 6.0 5.8 6.0 5.8 5.4 5.6 5.6 5.7 5.6 5.7 5.7 5.7 5.6 5.7 5.9 5.9 5.6 5.2 5.0 5.2
6.4 6.2 5.9 5.5 5.3 5.7 5.6 5.9 6.1 5.8 5.9 6.0 5.9 6.1 5.9 6.0 6.0 6.0 6.0 6.0 6.0 5.9 6.0 6.1 6.1 5.9 5.8 5.8 5.8 5.8 5.5 5.4 5.5 5.6 5.7 5.7 5.7 5.8 6.0 5.8 5.5 5.3 5.3
6.3 6.2 6.0 5.8 5.7 5.3 5.4 5.6 5.8 5.7 5.7 5.7 5.7 5.7 5.8 5.9 5.9 6.0 6.1 5.9 5.8 5.8 5.9 5.8 5.8 5.8 5.8 5.6 5.7 5.5 5.2 5.2 5.3 5.4 5.6 5.5 5.5 5.6 5.7 5.9 5.7 5.6 5.3
6.3 6.1 6.1 6.2 6.0 5.9 5.6 5.4 5.3 5.4 5.6 5.9 5.8 5.8 5.9 6.2 6.3 6.2 6.2 5.8 5.7 5.7 5.9 5.9 5.8 5.8 5.6 5.4 5.5 5.4 5.2 5.2 5.0 5.0 5.1 5.4 5.3 5.0 5.1 4.9 5.5 5.7 5.6
6.3 6.3 5.9 5.9 5.9 5.9 5.9 5.6 5.5 5.6 5.4 5.5 5.5 5.7 5.8 5.9 6.0 6.0 6.0 5.8 5.7 5.8 5.5 5.8 5.6 5.3 5.4 5.2 5.3 5.1 5.1 5.0 4.5 4.3 4.6 4.7 4.5 4.5 4.7 4.7 4.7 5.2 5.7
6.1 6.2 5.9 5.9 5.8 5.7 5.7 5.8 5.9 5.8 5.8 5.6 5.1 5.0 5.2 5.6 5.4 5.5 5.6 5.6 5.6 5.7 5.9 5.7 5.4 5.0 5.1 5.0 5.0 4.6 4.5 4.8 4.4 4.4 4.4 4.3 4.5 4.3 4.4 4.4 4.7 4.2 5.1
5.9 6.0 6.1 5.9 5.9 5.8 5.7 5.7 5.8 5.9 5.9 5.8 5.4 5.2 5.0 4.9 5.0 5.2 5.4 5.6 5.4 5.5 5.4 5.3 5.2 5.1 5.2 4.6 4.4 4.6 4.5 4.6 4.7 4.2 4.1 4.2 4.5 4.6 4.5 4.4 4.4 4.5 5.3
5.8 6.0 6.2 5.8 5.7 5.7 5.6 5.5 5.6 5.7 5.8 5.8 5.8 5.7 5.3 5.2 5.1 5.2 5.3 5.0 4.9 5.0 5.5 5.4 5.5 5.0 5.1 4.9 4.7 4.5 4.5 4.3 4.1 4.1 4.4 4.5 4.6 4.7 4.5 4.5 4.9 5.1 5.3
5.7 5.5 5.6 5.8 5.5 5.3 5.3 5.4 5.5 5.6 5.6 5.5 5.4 5.4 5.3 5.3 5.4 5.7 4.8 4.6 4.6 4.8 4.8 5.2 4.6 5.2 4.9 4.8 4.7 4.5 4.4 4.4 4.6 4.8 4.7 4.6 4.4 4.5 4.5 4.6 4.9 5.2 5.5
5.7 5.5 5.6 5.5 5.6 5.1 5.1 5.3 5.4 5.3 5.3 5.3 5.4 5.2 4.9 4.7 4.8 4.7 4.6 4.3 4.5 4.3 4.4 4.0 4.1 4.1 4.0 4.5 4.4 4.5 4.7 4.9 4.8 4.6 4.5 4.9 5.1 5.2 4.8 5.0 5.0 5.3 5.3
5.5 5.4 5.4 5.4 5.5 5.4 5.1 5.1 5.3 5.3 5.3 5.4 5.3 5.3 5.0 4.5 4.3 4.5 4.3 4.2 4.3 4.0 3.8 3.6 3.8 4.0 4.5 4.8 5.0 5.5 5.1 5.0 4.8 4.9 5.1 4.8 4.8 5.0 5.1 5.1 5.5 5.8 5.6
5.5 5.6 5.7 5.8 5.8 5.6 5.5 5.4 5.5 5.5 5.8 5.4 5.3 5.2 5.2 5.0 4.5 4.1 4.3 4.6 4.7 4.4 4.1 4.3 4.4 4.5 5.0 5.4 5.8 5.7 5.5 5.4 5.4 5.2 5.1 5.2 5.4 5.3 5.4 5.6 5.7 5.6 5.4
5.9 6.0 6.0 5.9 5.8 5.9 5.8 5.4 5.7 5.9 5.9 5.8 5.6 5.3 5.5 5.8 5.4 5.4 5.3 5.1 5.0 5.1 5.1 5.2 5.3 5.6 5.8 6.0 6.0 5.7 5.6 5.4 5.5 5.7 5.7 5.5 5.5 5.6 5.7 5.6 5.6 5.6 5.1
6.1 6.2 6.2 6.2 6.2 6.2 6.1 6.2 6.1 6.2 6.2 6.2 6.0 6.0 5.5 5.6 5.5 5.2 5.4 5.6 5.8 5.7 5.9 6.3 6.1 5.6 5.7 5.6 5.5 5.4 5.6 5.6 5.6 5.8 5.6 5.5 5.4 5.4 5.5 5.6 5.3 4.9 4.5
6.5 6.6 6.7 6.6 6.6 6.6 6.6 6.6 6.7 6.7 6.7 6.7 6.5 6.4 6.2 6.1 5.8 5.7 5.7 5.8 6.0 6.3 6.2 6.2 5.8 5.7 5.5 5.7 5.8 5.8 5.8 5.5 5.6 5.5 5.4 5.4 5.3 5.2 4.9 4.4 4.2 4.0 4.2
6.9 7.1 7.2 7.3 7.4 7.3 7.3 7.2 7.0 6.8 6.8 6.6 6.6 6.4 6.2 6.3 6.0 5.7 5.9 6.1 6.3 6.2 5.9 5.8 5.7 5.7 5.6 5.7 5.8 5.8 5.6 5.4 5.4 5.7 5.5 5.4 5.0 4.5 4.2 3.8 4.1 3.6 3.7
6.8 6.9 6.9 7.2 7.2 7.2 7.3 7.3 7.2 6.9 7.0 6.9 6.5 6.4 6.2 6.1 6.1 6.0 5.8 5.9 5.8 5.7 5.7 5.7 5.8 5.8 5.7 5.9 5.9 5.9 5.7 5.7 5.0 4.6 5.0 4.7 4.7 4.8 4.1 4.1 3.9 4.2 4.3
6.5 6.6 6.3 6.2 6.4 6.5 7.0 7.2 6.7 6.5 6.8 7.1 6.7 6.2 6.2 5.9 5.9 5.9 6.1 6.0 5.8 5.8 5.9 5.9 6.0 6.6 6.4 6.1 5.6 5.1 5.0 5.1 4.9 4.9 4.6 4.5 4.3 4.1 4.2 4.1 3.7 3.9 3.8
5.9 5.8 5.8 5.9 6.0 6.1 6.4 6.4 6.1 6.2 6.0 6.3 6.5 6.4 6.0 5.9 5.8 6.2 6.1 5.8 5.9 5.9 5.8 5.8 5.9 5.9 6.0 5.9 5.4 5.2 5.1 4.9 5.0 5.1 5.1 5.2 5.2 5.1 4.9 4.9 4.8 4.6 4.5
Wind_Speed
13 12 9 7 7 6 5 7 7 10 8 7 7 6 5 6 7 6 5 4 3 3 4 3 5 3 3 2 2 2 1 2 3 2 1 5 3 5 7 11 12 10 9
5 9 9 8 8 7 6 7 7 10 11 10 6 6 8 7 5 7 6 5 6 6 6 4 5 1 3 1 2 2 3 2 2 1 1 4 0 2 5 8 10 11 10
3 5 12 9 10 8 8 8 7 10 11 11 11 10 7 7 6 6 7 7 6 5 6 7 6 4 3 2 1 1 2 2 2 2 1 1 1 2 3 6 7 10 11
2 2 10 10 13 14 13 10 8 9 9 8 8 8 7 6 6 7 7 7 6 5 6 5 6 5 5 4 3 2 2 2 1 2 1 1 1 1 3 6 4 3 5
4 5 9 6 7 5 5 14 14 11 11 10 8 7 9 8 8 7 7 7 7 6 6 4 2 2 4 3 3 3 3 2 2 2 1 1 2 3 2 1 3 6 5
5 10 11 9 6 4 6 5 11 11 10 11 11 9 8 8 11 13 10 7 7 7 6 4 5 7 7 7 9 7 4 4 3 2 1 1 1 1 2 2 6 4 3
10 18 15 11 11 10 10 7 13 13 7 9 11 9 9 8 12 13 13 7 7 7 7 6 5 5 7 4 9 11 10 9 3 3 4 2 2 0 1 2 2 2 2
2 2 3 9 10 9 7 9 8 6 8 7 7 8 7 7 12 14 11 7 7 8 8 7 6 7 8 9 7 6 6 5 4 3 5 4 3 2 1 2 4 5 4
2 3 1 1 1 6 10 8 7 4 5 6 6 7 9 9 13 13 8 6 7 7 5 5 7 7 6 12 9 8 5 3 5 9 9 8 6 3 4 5 3 3 2
0 2 4 5 5 5 4 5 3 2 3 3 6 6 9 10 9 11 9 4 6 4 4 5 8 8 8 7 8 8 6 5 5 1 1 1 1 12 14 5 5 3 3
4 6 6 6 5 3 3 2 3 3 3 2 2 3 2 4 5 10 10 5 4 6 6 5 4 8 9 8 10 8 5 7 6 4 3 2 2 4 4 7 6 4 4
5 6 6 5 4 3 5 5 5 5 4 1 3 3 3 4 3 6 8 9 4 6 9 6 6 9 8 9 7 13 14 8 4 2 3 2 4 3 3 6 8 10 12
4 5 6 6 6 6 5 4 3 4 4 3 1 2 2 3 3 5 8 10 10 4 7 9 16 12 11 10 12 14 9 4 3 2 4 3 2 3 6 4 5 9 11
4 6 5 6 6 6 5 5 4 3 3 3 3 3 2 2 2 2 1 5 10 8 12 8 7 10 10 8 8 6 3 3 4 4 4 2 3 2 1 3 2 1 3
4 4 4 6 6 5 4 3 3 3 2 3 2 2 1 1 0 5 6 3 5 9 8 7 8 6 8 6 4 5 4 4 4 3 2 3 2 3 1 1 3 2 3
4 2 2 4 6 5 3 3 10 6 9 10 8 5 3 8 6 9 16 16 14 13 5 5 7 6 6 5 5 4 3 3 3 4 3 3 3 3 2 2 3 5 4
5 2 2 3 4 5 4 3 3 4 12 13 10 8 7 11 11 10 11 13 10 7 5 4 4 4 2 4 4 4 4 3 3 3 3 4 4 3 4 3 3 3 2
5 4 2 3 3 4 4 4 3 2 2 2 8 7 6 9 10 11 10 5 5 5 3 3 4 4 4 4 4 4 4 4 3 4 4 3 3 3 3 4 3 3 2
5 3 2 2 3 4 4 3 3 3 2 2 1 5 4 10 9 6 4 1 4 3 3 4 4 4 4 4 3 4 5 4 4 5 4 4 5 4 3 3 3 3 3
4 9 5 3 2 3 3 3 4 4 3 2 2 2 3 2 3 4 3 2 2 3 3 5 4 4 4 5 5 4 4 4 4 4 4 4 4 3 3 4 3 3 3
5 5 6 4 4 3 3 3 3 3 4 3 3 4 7 3 4 4 4 4 3 4 3 4 4 4 4 5 5 5 5 4 4 4 4 3 3 2 4 5 5 4 5
5 6 5 4 4 5 4 4 3 4 4 5 4 5 10 3 3 4 4 4 5 6 4 5 5 5 5 5 5 5 5 5 5 5 4 5 4 3 3 3 4 4 4
5 7 6 5 5 6 5 5 4 5 5 5 6 5 5 5 4 4 4 4 4 5 5 4 5 5 7 9 11 8 5 5 6 6 6 5 6 5 4 4 5 4 3
3 7 8 7 7 8 8 8 7 8 6 5 5 6 6 6 5 6 5 6 5 5 7 6 6 6 7 10 12 10 9 16 15 11 9 5 5 4 4 3 4 4 4
5 7 9 9 9 7 6 8 8 8 9 8 7 6 7 7 6 7 6 5 6 6 6 7 9 12 17 11 13 15 15 16 17 11 8 6 3 3 3 2 3 3 4
6 4 5 6 5 5 4 4 5 7 6 12 9 8 7 7 6 7 7 6 6 6 7 7 10 13 19 20 24 22 17 16 13 9 6 3 2 3 4 5 7 4 5
Wind_Direction
194 183 192 202 209 212 200 192 166 135 141 174 188 198 232 232 204 179 191 216 211 248 278 250 254 289 280 298 20 23 129 147 162 291 142 210 216 205 151 148 147 120 116
5 346 213 190 196 205 212 209 170 162 170 189 205 207 219 232 187 181 193 208 209 219 240 242 242 289 1 110 91 47 69 42 132 270 329 27 131 143 152 150 150 127 113
148 314 312 205 196 200 207 208 200 172 185 194 197 200 215 213 208 202 200 218 214 209 226 223 229 210 228 237 147 64 69 66 86 99 329 64 62 86 79 91 103 102 109
150 175 315 314 209 195 204 207 205 192 191 198 201 204 204 214 217 206 205 214 213 225 246 223 205 214 207 222 204 129 107 67 56 65 75 63 82 358 100 136 128 124 138
124 177 223 291 284 327 238 201 207 199 195 199 206 201 203 204 216 215 208 210 207 224 239 210 193 130 68 116 147 150 132 109 122 96 84 79 61 49 72 52 120 125 97
144 183 225 236 257 232 267 286 227 201 192 191 203 205 204 214 206 212 208 201 201 207 230 216 148 136 120 115 103 97 118 148 129 126 134 133 92 94 14 106 138 141 142
180 210 212 215 217 231 237 199 233 210 195 195 204 203 211 207 204 212 218 208 197 205 213 205 185 171 140 135 113 99 79 66 96 150 135 120 137 142 351 85 94 109 107
170 230 171 205 206 218 247 252 232 205 194 201 208 203 209 218 211 211 200 209 203 199 195 193 175 162 168 157 146 110 89 71 55 92 113 141 139 193 172 136 134 102 86
217 230 182 70 29 215 225 238 235 214 236 226 216 222 222 224 207 212 191 195 202 204 195 148 168 154 167 166 142 135 117 77 51 105 126 141 145 187 190 128 147 128 114
80 60 72 53 30 20 1 313 271 241 244 241 252 245 232 236 217 213 201 198 193 158 129 100 91 133 157 158 142 140 136 159 139 139 259 250 119 89 77 105 162 145 114
65 87 71 44 1 359 3 344 343 331 305 282 9 44 51 22 219 191 200 214 203 166 159 142 119 132 150 152 155 160 152 147 159 186 232 157 109 75 67 51 68 136 126
94 86 71 48 26 25 34 21 18 356 335 163 123 90 57 47 39 218 226 230 241 180 165 147 142 155 153 158 131 132 136 133 136 162 240 139 124 107 99 92 75 83 92
33 112 95 65 31 30 36 40 38 24 10 26 92 87 76 21 0 332 239 242 244 184 152 152 139 130 114 98 123 119 111 116 167 173 116 101 124 144 115 85 88 94 81
11 136 123 103 70 29 26 26 36 31 58 43 39 45 51 43 29 59 15 97 77 90 112 122 121 121 110 117 111 102 107 110 136 123 126 122 115 95 132 141 125 91 80
44 32 133 117 105 83 59 14 19 49 331 86 73 66 69 57 288 111 76 41 113 118 115 121 107 117 105 98 84 89 75 76 93 92 114 123 102 98 92 139 140 151 103
68 25 38 132 136 128 109 78 47 40 57 58 56 110 69 71 66 85 96 93 72 43 66 98 104 108 113 128 110 100 104 134 153 137 133 123 128 112 95 38 75 108 118
124 136 96 116 122 126 129 118 87 43 65 47 44 55 65 127 90 84 79 82 64 82 93 55 85 92 163 111 136 155 138 151 115 110 105 117 124 118 128 96 100 102 84
115 140 176 151 150 135 148 147 156 179 126 74 34 24 84 102 110 121 115 94 87 59 104 137 150 154 177 175 165 135 133 126 124 119 104 127 111 120 112 109 109 122 142
129 153 159 151 157 154 150 148 157 112 87 87 114 68 28 83 94 93 32 63 122 153 180 190 199 178 171 157 139 138 145 133 124 117 120 119 130 128 133 126 149 160 132
147 149 142 139 150 152 158 138 129 138 133 154 158 163 155 176 150 173 194 185 220 221 248 204 189 165 147 138 149 155 142 137 132 126 136 145 152 144 162 174 188 167 207
142 143 165 161 174 167 152 156 174 157 165 179 189 187 204 194 170 182 199 194 225 243 235 196 139 134 131 134 134 131 130 139 148 147 164 166 167 171 191 193 218 209 230
167 166 171 174 173 174 178 182 190 178 172 178 178 184 196 212 225 211 207 223 231 235 202 156 140 144 147 149 153 150 159 182 177 181 194 196 198 206 189 209 223 226 201
173 168 178 176 182 179 185 190 192 210 195 186 168 164 186 210 229 247 240 229 241 152 143 139 143 156 174 174 178 175 173 203 205 184 182 193 203 209 207 231 235 229 194
221 190 193 191 195 194 192 195 200 195 191 188 186 176 182 208 214 227 238 255 174 147 157 163 167 172 185 191 191 184 192 213 202 178 169 158 164 171 167 220 240 214 189
239 259 207 197 196 198 193 198 196 193 195 186 198 193 191 194 211 220 224 186 148 158 183 189 184 182 194 166 158 148 137 125 128 137 139 134 170 185 204 240 219 230 217
238 259 176 156 176 199 198 218 183 187 182 171 185 194 196 194 207 204 175 165 169 178 188 198 192 175 167 170 171 168 162 149 143 146 149 159 212 247 240 237 251 246 239